Starlink 35634

operational
NORAD ID: 66173 Int'l Des: 2025-240 Owner: SPXS Country: US Constellation: starlink
LEOCIRCULAR

Starlink 35634について

説明を読み込み中...

リアルタイム位置

3D地球を読み込み中...

次回通過

高度履歴

Altitude vs Time

uPlot chart will show altitude changes over time

軌道要素

1 66173U 25240AD 25348.47226388 .00047209 00000-0 15968-2 0 9991
2 66173 53.1587 98.4540 0001013 109.4474 250.6636 15.30182660 8949
Epoch: Dec 14, 2025 • Age: 35 hours

現在のステータス

高度 478.8 km
速度 7.63 km/s
衛星直下点 44.75°N, 164.21°E
打ち上げ日 Oct 25, 2025
運用期間 0.1 years
タイプ internet

技術仕様

分類 Payload
質量 575.00 kg
乾燥質量 530.00 kg
総質量 575.00 kg
長さ 0.30 m
直径 4.10 m
スパン 29.00 m
形状 Box + pan
製造者 SPXS
バスタイプ Starlink V2MO
フェーズステータス In Orbit
所有者/国 SPXS/US

大規模コンステレーション

Loading constellations...